Location: Unspecified
(48.7670°N, 0.0000°E)
Time: 03:48:01
(UTC+00:00)

Vanguard 2 Rocket - Pass Details

Date: 10 October 2020
Orbit: 554 x 3326 km, 32.9° (Epoch: 26 October)

Event Time Altitude Azimuth Distance (km) Brightness Sun altitude
Exits shadow 02:24:22 44° 185° (S) 3,688 9.5 -36.5°
Maximum altitude 02:24:23 44° 185° (S) 3,689 9.5 -36.5°
Drops below altitude 10° 02:42:26 10° 123° (ESE) 6,282 11.4 -34.1°
Sets 02:47:38 0° 118° (ESE) 7,254 11.8 -33.4°
